| time (UTC) | temp F | wind direction | speed MPH | gust MPH | rain 1hr in | rain 24hr in | rain mn in | humidity % | barometer mb |
| 20260503022552 | 41 | 242 | 3.0 | 9.0 | 0.00 | 0.00 | 0.00 | 74 | 1016.7 |
| 20260503022038 | 41 | 241 | 2.0 | 9.0 | 0.00 | 0.00 | 0.00 | 74 | 1016.8 |
| 20260503021524 | 41 | 236 | 2.0 | 5.0 | 0.00 | 0.00 | 0.00 | 74 | 1016.8 |
| 20260503021025 | 41 | 244 | 1.0 | 6.0 | 0.00 | 0.00 | 0.00 | 74 | 1016.8 |
| 20260503020527 | 41 | 243 | 1.0 | 7.0 | 0.00 | 0.00 | 0.00 | 74 | 1016.8 |
| 20260503020031 | 41 | 265 | 1.0 | 10.0 | 0.00 | 0.00 | 0.00 | 73 | 1016.8 |
| 20260503015512 | 41 | 206 | 4.0 | 11.0 | 0.00 | 0.00 | 0.00 | 73 | 1016.7 |
| 20260503015014 | 41 | 249 | 2.0 | 9.0 | 0.00 | 0.00 | 0.00 | 73 | 1016.7 |
| 20260503014524 | 41 | 238 | 3.0 | 9.0 | 0.00 | 0.00 | 0.00 | 73 | 1016.7 |
| 20260503014007 | 41 | 239 | 1.0 | 5.0 | 0.00 | 0.00 | 0.00 | 74 | 1016.7 |
| 20260503013522 | 41 | 236 | 2.0 | 5.0 | 0.00 | 0.00 | 0.00 | 73 | 1016.8 |
| 20260503013003 | 41 | 260 | 2.0 | 8.0 | 0.00 | 0.00 | 0.00 | 72 | 1016.8 |
| 20260503012520 | 41 | 257 | 2.0 | 9.0 | 0.00 | 0.00 | 0.00 | 72 | 1016.8 |
| 20260503012021 | 41 | 250 | 4.0 | 9.0 | 0.00 | 0.00 | 0.00 | 72 | 1016.8 |
| 20260503011532 | 41 | 236 | 4.0 | 9.0 | 0.00 | 0.00 | 0.00 | 72 | 1016.8 |
| 20260503011035 | 41 | 270 | 2.0 | 9.0 | 0.00 | 0.00 | 0.00 | 72 | 1016.7 |
| 20260503010543 | 41 | 259 | 5.0 | 10.0 | 0.00 | 0.00 | 0.00 | 72 | 1016.7 |
| 20260503010052 | 41 | 234 | 4.0 | 10.0 | 0.00 | 0.00 | 0.00 | 71 | 1016.7 |
| 20260503005607 | 41 | 227 | 4.0 | 8.0 | 0.00 | 0.00 | 0.00 | 71 | 1016.7 |
| 20260503005503 | 41 | 246 | 2.0 | 8.0 | 0.00 | 0.00 | 0.00 | 70 | 1016.7 |
| 20260503005046 | 41 | 242 | 4.0 | 9.0 | 0.00 | 0.00 | 0.00 | 69 | 1016.7 |
| 20260503004536 | 41 | 234 | 4.0 | 9.0 | 0.00 | 0.00 | 0.00 | 69 | 1016.7 |
| 20260503004046 | 41 | 281 | 4.0 | 10.0 | 0.00 | 0.00 | 0.00 | 68 | 1016.6 |
| 20260503003554 | 41 | 246 | 5.0 | 9.0 | 0.00 | 0.00 | 0.00 | 69 | 1016.6 |
| 20260503003106 | 41 | 265 | 4.0 | 9.0 | 0.00 | 0.00 | 0.00 | 69 | 1016.6 |
| 20260503002507 | 41 | 287 | 4.0 | 10.0 | 0.00 | 0.00 | 0.00 | 69 | 1016.6 |
| 20260503002014 | 41 | 242 | 4.0 | 10.0 | 0.00 | 0.00 | 0.00 | 69 | 1016.6 |
| 20260503001510 | 41 | 230 | 3.0 | 8.0 | 0.00 | 0.00 | 0.00 | 70 | 1016.6 |
| 20260503001052 | 41 | 263 | 4.0 | 8.0 | 0.00 | 0.00 | 0.00 | 71 | 1016.6 |
| 20260503000557 | 41 | 240 | 3.0 | 8.0 | 0.00 | 0.00 | 0.00 | 71 | 1016.7 |
| 20260503000013 | 41 | 259 | 3.0 | 8.0 | 0.00 | 0.00 | 0.00 | 70 | 1016.6 |
| 20260502235517 | 42 | 242 | 3.0 | 11.0 | 0.00 | 0.00 | 0.00 | 71 | 1016.6 |
| 20260502235002 | 42 | 243 | 4.0 | 11.0 | 0.00 | 0.00 | 0.00 | 70 | 1016.6 |
| 20260502234511 | 42 | 291 | 3.0 | 10.0 | 0.00 | 0.00 | 0.00 | 71 | 1016.6 |
| 20260502234023 | 42 | 259 | 3.0 | 10.0 | 0.00 | 0.00 | 0.00 | 71 | 1016.5 |
| 20260502233531 | 42 | 227 | 3.0 | 10.0 | 0.00 | 0.00 | 0.00 | 70 | 1016.6 |
| 20260502233017 | 42 | 257 | 4.0 | 11.0 | 0.00 | 0.00 | 0.00 | 69 | 1016.6 |
| 20260502232519 | 42 | 255 | 5.0 | 10.0 | 0.00 | 0.00 | 0.00 | 70 | 1016.6 |
| 20260502232038 | 42 | 230 | 5.0 | 10.0 | 0.00 | 0.00 | 0.00 | 70 | 1016.6 |
| 20260502231526 | 42 | 234 | 5.0 | 11.0 | 0.00 | 0.00 | 0.00 | 69 | 1016.6 |
| 20260502231031 | 42 | 248 | 6.0 | 14.0 | 0.00 | 0.00 | 0.00 | 69 | 1016.6 |
| 20260502230540 | 42 | 236 | 5.0 | 14.0 | 0.00 | 0.00 | 0.00 | 69 | 1016.6 |
| 20260502230042 | 42 | 260 | 5.0 | 10.0 | 0.00 | 0.00 | 0.00 | 69 | 1016.6 |
| 20260502225553 | 42 | 240 | 4.0 | 15.0 | 0.00 | 0.00 | 0.00 | 69 | 1016.6 |
| 20260502225059 | 42 | 241 | 6.0 | 15.0 | 0.00 | 0.00 | 0.00 | 69 | 1016.6 |
| 20260502224509 | 42 | 249 | 5.0 | 13.0 | 0.00 | 0.00 | 0.00 | 69 | 1016.6 |
| 20260502224022 | 42 | 232 | 4.0 | 14.0 | 0.00 | 0.00 | 0.00 | 70 | 1016.5 |
| 20260502223525 | 42 | 276 | 6.0 | 14.0 | 0.00 | 0.00 | 0.00 | 70 | 1016.5 |
| 20260502223039 | 42 | 223 | 6.0 | 14.0 | 0.00 | 0.00 | 0.00 | 69 | 1016.5 |
| 20260502222543 | 42 | 248 | 5.0 | 14.0 | 0.00 | 0.00 | 0.00 | 69 | 1016.5 |
| 20260502222047 | 42 | 257 | 4.0 | 12.0 | 0.00 | 0.00 | 0.00 | 69 | 1016.5 |
| 20260502221535 | 42 | 237 | 7.0 | 14.0 | 0.00 | 0.00 | 0.00 | 67 | 1016.5 |
| 20260502221059 | 43 | 255 | 7.0 | 14.0 | 0.00 | 0.00 | 0.00 | 67 | 1016.6 |
| 20260502220505 | 43 | 240 | 6.0 | 14.0 | 0.00 | 0.00 | 0.00 | 68 | 1016.5 |
| 20260502220008 | 43 | 269 | 7.0 | 13.0 | 0.00 | 0.00 | 0.00 | 67 | 1016.5 |
| 20260502215520 | 43 | 248 | 7.0 | 13.0 | 0.00 | 0.00 | 0.00 | 67 | 1016.5 |
| 20260502215018 | 43 | 254 | 5.0 | 14.0 | 0.00 | 0.00 | 0.00 | 67 | 1016.5 |
| 20260502214508 | 44 | 246 | 7.0 | 16.0 | 0.00 | 0.00 | 0.00 | 65 | 1016.5 |
| 20260502214016 | 44 | 229 | 8.0 | 16.0 | 0.00 | 0.00 | 0.00 | 66 | 1016.4 |
| 20260502213528 | 44 | 238 | 5.0 | 14.0 | 0.00 | 0.00 | 0.00 | 67 | 1016.4 |
| 20260502213013 | 44 | 261 | 8.0 | 14.0 | 0.00 | 0.00 | 0.00 | 65 | 1016.4 |
| 20260502212525 | 44 | 239 | 7.0 | 13.0 | 0.00 | 0.00 | 0.00 | 64 | 1016.4 |
| 20260502212029 | 44 | 284 | 8.0 | 15.0 | 0.00 | 0.00 | 0.00 | 64 | 1016.4 |
| 20260502211537 | 44 | 282 | 7.0 | 15.0 | 0.00 | 0.00 | 0.00 | 64 | 1016.3 |
| 20260502211044 | 44 | 244 | 7.0 | 15.0 | 0.00 | 0.00 | 0.00 | 63 | 1016.3 |
| 20260502210521 | 44 | 255 | 8.0 | 15.0 | 0.00 | 0.00 | 0.00 | 65 | 1016.3 |
| 20260502210057 | 44 | 277 | 7.0 | 16.0 | 0.00 | 0.00 | 0.00 | 64 | 1016.3 |
| 20260502205543 | 44 | 265 | 8.0 | 16.0 | 0.00 | 0.00 | 0.00 | 64 | 1016.3 |
| 20260502205057 | 44 | 232 | 5.0 | 14.0 | 0.00 | 0.00 | 0.00 | 65 | 1016.3 |
| 20260502204557 | 44 | 235 | 8.0 | 15.0 | 0.00 | 0.00 | 0.00 | 63 | 1016.3 |
| 20260502204102 | 44 | 254 | 8.0 | 15.0 | 0.00 | 0.00 | 0.00 | 62 | 1016.3 |
| 20260502203505 | 44 | 237 | 7.0 | 16.0 | 0.00 | 0.00 | 0.00 | 63 | 1016.2 |
| 20260502203103 | 44 | 254 | 7.0 | 16.0 | 0.00 | 0.00 | 0.00 | 63 | 1016.3 |
| 20260502202540 | 44 | 257 | 6.0 | 15.0 | 0.00 | 0.00 | 0.00 | 60 | 1016.3 |
| 20260502202049 | 44 | 242 | 6.0 | 18.0 | 0.00 | 0.00 | 0.00 | 62 | 1016.3 |
| 20260502201557 | 44 | 258 | 8.0 | 18.0 | 0.00 | 0.00 | 0.00 | 60 | 1016.3 |
| 20260502201100 | 44 | 236 | 5.0 | 19.0 | 0.00 | 0.00 | 0.00 | 61 | 1016.4 |
| 20260502200551 | 45 | 251 | 7.0 | 15.0 | 0.00 | 0.00 | 0.00 | 63 | 1016.5 |
| 20260502200047 | 45 | 249 | 9.0 | 15.0 | 0.00 | 0.00 | 0.00 | 60 | 1016.5 |
| 20260502195549 | 45 | 246 | 5.0 | 15.0 | 0.00 | 0.00 | 0.00 | 63 | 1016.5 |
| 20260502195104 | 44 | 254 | 7.0 | 15.0 | 0.00 | 0.00 | 0.00 | 61 | 1016.6 |
| 20260502194512 | 44 | 262 | 8.0 | 15.0 | 0.00 | 0.00 | 0.00 | 62 | 1016.7 |
| 20260502194051 | 45 | 246 | 7.0 | 15.0 | 0.00 | 0.00 | 0.00 | 63 | 1016.7 |
| 20260502193537 | 45 | 241 | 6.0 | 12.0 | 0.00 | 0.00 | 0.00 | 62 | 1016.7 |
| 20260502193029 | 45 | 273 | 5.0 | 16.0 | 0.00 | 0.00 | 0.00 | 63 | 1016.8 |
| 20260502192515 | 44 | 309 | 8.0 | 16.0 | 0.00 | 0.00 | 0.00 | 61 | 1016.9 |
| 20260502192014 | 44 | 252 | 8.0 | 15.0 | 0.00 | 0.00 | 0.00 | 59 | 1016.9 |
| 20260502191503 | 44 | 284 | 7.0 | 16.0 | 0.00 | 0.00 | 0.00 | 58 | 1016.9 |
| 20260502191017 | 45 | 246 | 7.0 | 16.0 | 0.00 | 0.00 | 0.00 | 59 | 1017.0 |
| 20260502190519 | 44 | 258 | 7.0 | 20.0 | 0.00 | 0.00 | 0.00 | 60 | 1017.0 |
| 20260502190029 | 44 | 238 | 7.0 | 20.0 | 0.00 | 0.00 | 0.00 | 59 | 1017.0 |
| 20260502185535 | 45 | 240 | 7.0 | 17.0 | 0.00 | 0.00 | 0.00 | 57 | 1017.0 |
| 20260502185048 | 45 | 267 | 7.0 | 17.0 | 0.00 | 0.00 | 0.00 | 54 | 1017.0 |
| 20260502184529 | 45 | 241 | 5.0 | 16.0 | 0.00 | 0.00 | 0.00 | 53 | 1016.9 |
| 20260502184039 | 46 | 259 | 7.0 | 15.0 | 0.00 | 0.00 | 0.00 | 51 | 1017.0 |
| 20260502183543 | 46 | 269 | 5.0 | 12.0 | 0.00 | 0.00 | 0.00 | 52 | 1016.9 |
| 20260502183103 | 46 | 255 | 5.0 | 10.0 | 0.00 | 0.00 | 0.00 | 52 | 1016.9 |
| 20260502182538 | 46 | 277 | 4.0 | 10.0 | 0.00 | 0.00 | 0.00 | 54 | 1016.9 |
| 20260502182048 | 45 | 240 | 6.0 | 11.0 | 0.00 | 0.00 | 0.00 | 55 | 1017.0 |
| 20260502181558 | 45 | 248 | 6.0 | 12.0 | 0.00 | 0.00 | 0.00 | 50 | 1017.0 |
| 20260502181101 | 46 | 242 | 5.0 | 12.0 | 0.00 | 0.00 | 0.00 | 51 | 1016.9 |
| 20260502180507 | 46 | 232 | 2.0 | 11.0 | 0.00 | 0.00 | 0.00 | 56 | 1017.0 |
| 20260502164046 | 42 | 333 | 3.0 | 8.0 | 0.00 | 0.05 | 0.00 | 66 | 1017.4 |
| 20260502163549 | 42 | 273 | 3.0 | 8.0 | 0.00 | 0.05 | 0.00 | 66 | 1017.4 |
| 20260502163109 | 42 | 281 | 1.0 | 8.0 | 0.00 | 0.05 | 0.00 | 66 | 1017.5 |
| 20260502162505 | 42 | 253 | 2.0 | 8.0 | 0.00 | 0.05 | 0.00 | 69 | 1017.5 |
| 20260502162019 | 41 | 257 | 3.0 | 10.0 | 0.00 | 0.05 | 0.00 | 66 | 1017.4 |
| 20260502161527 | 42 | 268 | 2.0 | 7.0 | 0.00 | 0.05 | 0.00 | 68 | 1017.5 |
| 20260502161028 | 42 | 296 | 2.0 | 7.0 | 0.00 | 0.05 | 0.00 | 70 | 1017.6 |
| 20260502160516 | 42 | 232 | 2.0 | 6.0 | 0.00 | 0.05 | 0.00 | 67 | 1017.5 |
| 20260502152043 | 41 | 279 | 2.0 | 5.0 | 0.00 | 0.07 | 0.00 | 64 | 1017.5 |
| 20260502151554 | 42 | 312 | 2.0 | 6.0 | 0.00 | 0.07 | 0.00 | 66 | 1017.5 |
| 20260502151103 | 42 | 250 | 1.0 | 8.0 | 0.00 | 0.07 | 0.00 | 64 | 1017.4 |
| 20260502150506 | 41 | 237 | 3.0 | 10.0 | 0.00 | 0.07 | 0.00 | 67 | 1017.3 |
| 20260502130556 | 39 | 360 | 3.0 | 5.0 | 0.00 | 0.16 | 0.00 | 73 | 1017.5 |
| 20260502123532 | 38 | 309 | 1.0 | 3.0 | 0.00 | 0.16 | 0.00 | 73 | 1017.6 |
| 20260502123054 | 38 | 308 | 1.0 | 4.0 | 0.00 | 0.16 | 0.00 | 73 | 1017.6 |
| 20260502122518 | 38 | 332 | 2.0 | 4.0 | 0.00 | 0.16 | 0.00 | 73 | 1017.6 |
| 20260502122016 | 38 | 333 | 1.0 | 4.0 | 0.00 | 0.16 | 0.00 | 73 | 1017.6 |
| 20260502121532 | 38 | 334 | 0.0 | 2.0 | 0.00 | 0.16 | 0.00 | 75 | 1017.6 |
| 20260502121010 | 38 | 334 | 1.0 | 4.0 | 0.00 | 0.16 | 0.00 | 74 | 1017.5 |
| 20260502120526 | 38 | 334 | 0.0 | 4.0 | 0.00 | 0.16 | 0.00 | 74 | 1017.5 |
| 20260502115527 | 37 | 334 | 0.0 | 5.0 | 0.00 | 0.16 | 0.00 | 76 | 1017.5 |
| 20260502115026 | 38 | 344 | 1.0 | 2.0 | 0.00 | 0.16 | 0.00 | 79 | 1017.4 |
| 20260502114532 | 37 | 344 | 0.0 | 3.0 | 0.00 | 0.16 | 0.00 | 78 | 1017.4 |
| 20260502114045 | 37 | 344 | 0.0 | 3.0 | 0.00 | 0.16 | 0.00 | 78 | 1017.3 |
| 20260502113532 | 37 | 344 | 0.0 | 1.0 | 0.00 | 0.16 | 0.00 | 78 | 1017.3 |
| 20260502113042 | 37 | 345 | 0.0 | 2.0 | 0.00 | 0.16 | 0.00 | 78 | 1017.3 |
| 20260502112515 | 37 | 345 | 0.0 | 2.0 | 0.00 | 0.16 | 0.00 | 78 | 1017.2 |
| 20260502112028 | 37 | 345 | 0.0 | 2.0 | 0.00 | 0.16 | 0.00 | 79 | 1017.1 |
| 20260502111541 | 37 | 345 | 0.0 | 4.0 | 0.00 | 0.16 | 0.00 | 80 | 1017.1 |
| 20260502111008 | 36 | 346 | 1.0 | 4.0 | 0.00 | 0.16 | 0.00 | 81 | 1017.0 |
| 20260502110524 | 36 | 345 | 0.0 | 1.0 | 0.00 | 0.16 | 0.00 | 82 | 1017.1 |
| 20260502110030 | 36 | 346 | 0.0 | 3.0 | 0.00 | 0.16 | 0.00 | 83 | 1017.1 |
| 20260502105538 | 36 | 346 | 0.0 | 3.0 | 0.00 | 0.16 | 0.00 | 83 | 1017.0 |
| 20260502105037 | 36 | 5 | 0.0 | 3.0 | 0.00 | 0.16 | 0.00 | 85 | 1017.0 |
| 20260502104527 | 36 | 128 | 0.0 | 2.0 | 0.00 | 0.16 | 0.00 | 86 | 1016.9 |
| 20260502104020 | 36 | 128 | 0.0 | 3.0 | 0.00 | 0.16 | 0.00 | 87 | 1016.9 |
| 20260502103520 | 36 | 128 | 0.0 | 3.0 | 0.00 | 0.16 | 0.00 | 88 | 1016.9 |
| 20260502103027 | 36 | 129 | 0.0 | 2.0 | 0.00 | 0.16 | 0.00 | 88 | 1016.9 |
| 20260502102532 | 36 | 129 | 0.0 | 1.0 | 0.00 | 0.16 | 0.00 | 88 | 1016.9 |
| 20260502102046 | 36 | 129 | 0.0 | 1.0 | 0.00 | 0.16 | 0.00 | 88 | 1016.8 |
| 20260502101553 | 36 | 129 | 0.0 | 1.0 | 0.00 | 0.16 | 0.00 | 89 | 1016.8 |
| 20260502101009 | 36 | 129 | 0.0 | 2.0 | 0.00 | 0.16 | 0.00 | 88 | 1016.8 |
| 20260502100518 | 36 | 129 | 0.0 | 2.0 | 0.00 | 0.16 | 0.00 | 88 | 1016.8 |
| 20260502091521 | 36 | 129 | 0.0 | 0.0 | 0.00 | 0.16 | 0.00 | 85 | 1016.4 |
| 20260502091021 | 37 | 129 | 0.0 | 0.0 | 0.00 | 0.16 | 0.00 | 85 | 1016.4 |
| 20260502090513 | 37 | 129 | 0.0 | 0.0 | 0.00 | 0.16 | 0.00 | 84 | 1016.4 |
| 20260502071059 | 37 | 173 | 0.0 | 0.0 | 0.00 | 0.16 | 0.00 | 84 | 1015.6 |
| 20260502070507 | 37 | 173 | 0.0 | 0.0 | 0.00 | 0.16 | 0.00 | 84 | 1015.6 |
| 20260502070022 | 37 | 173 | 0.0 | 0.0 | 0.00 | 0.16 | 0.00 | 85 | 1015.6 |
| 20260502065525 | 37 | 173 | 0.0 | 0.0 | 0.00 | 0.16 | 0.00 | 86 | 1015.6 |
| 20260502065101 | 37 | 173 | 0.0 | 0.0 | 0.00 | 0.16 | 0.00 | 86 | 1015.7 |
| 20260502064509 | 37 | 173 | 0.0 | 0.0 | 0.00 | 0.16 | 0.00 | 85 | 1015.7 |
| 20260502064049 | 37 | 173 | 0.0 | 0.0 | 0.00 | 0.16 | 0.00 | 85 | 1015.8 |
| 20260502063537 | 37 | 173 | 0.0 | 0.0 | 0.00 | 0.16 | 0.00 | 85 | 1016.0 |
| 20260502063051 | 37 | 173 | 0.0 | 0.0 | 0.00 | 0.16 | 0.00 | 85 | 1015.9 |
| 20260502062557 | 37 | 173 | 0.0 | 0.0 | 0.00 | 0.16 | 0.00 | 86 | 1015.9 |
| 20260502062044 | 37 | 173 | 0.0 | 0.0 | 0.00 | 0.16 | 0.00 | 85 | 1015.9 |
| 20260502061547 | 37 | 173 | 0.0 | 0.0 | 0.00 | 0.16 | 0.00 | 85 | 1016.1 |
| 20260502061055 | 37 | 173 | 0.0 | 0.0 | 0.00 | 0.16 | 0.00 | 85 | 1016.1 |
| 20260502060544 | 37 | 173 | 0.0 | 0.0 | 0.00 | 0.16 | 0.00 | 85 | 1016.1 |
| 20260502060054 | 37 | 173 | 0.0 | 2.0 | 0.00 | 0.16 | 0.00 | 84 | 1016.1 |
| 20260502055541 | 37 | 173 | 0.0 | 2.0 | 0.00 | 0.16 | 0.00 | 84 | 1016.1 |
| 20260502055058 | 37 | 173 | 0.0 | 3.0 | 0.00 | 0.16 | 0.00 | 83 | 1016.2 |
| 20260502054558 | 37 | 173 | 0.0 | 3.0 | 0.00 | 0.16 | 0.00 | 83 | 1016.2 |
| 20260502054018 | 37 | 207 | 1.0 | 2.0 | 0.00 | 0.16 | 0.00 | 84 | 1016.3 |
| 20260502053521 | 37 | 207 | 0.0 | 2.0 | 0.00 | 0.16 | 0.00 | 84 | 1016.4 |
| 20260502053032 | 37 | 207 | 1.0 | 3.0 | 0.00 | 0.16 | 0.00 | 84 | 1016.4 |
| 20260502052537 | 37 | 207 | 0.0 | 3.0 | 0.00 | 0.16 | 0.00 | 84 | 1016.5 |
| 20260502052051 | 37 | 207 | 0.0 | 2.0 | 0.00 | 0.16 | 0.00 | 83 | 1016.4 |
| 20260502051601 | 37 | 207 | 0.0 | 4.0 | 0.00 | 0.16 | 0.00 | 83 | 1016.4 |
| 20260502051059 | 37 | 207 | 1.0 | 4.0 | 0.00 | 0.16 | 0.00 | 82 | 1016.4 |
| 20260502050515 | 37 | 209 | 1.0 | 2.0 | 0.00 | 0.16 | 0.00 | 82 | 1016.4 |
| 20260502050016 | 37 | 209 | 1.0 | 3.0 | 0.00 | 0.16 | 0.00 | 81 | 1016.3 |
| 20260502045532 | 37 | 209 | 1.0 | 3.0 | 0.00 | 0.16 | 0.00 | 81 | 1016.3 |
| 20260502045004 | 37 | 262 | 0.0 | 4.0 | 0.00 | 0.16 | 0.00 | 82 | 1016.2 |
| 20260502044511 | 37 | 269 | 0.0 | 4.0 | 0.00 | 0.16 | 0.00 | 83 | 1016.3 |
| 20260502044103 | 37 | 259 | 0.0 | 4.0 | 0.00 | 0.16 | 0.00 | 85 | 1016.3 |
| 20260502043551 | 37 | 230 | 0.0 | 2.0 | 0.00 | 0.16 | 0.00 | 85 | 1016.3 |
| 20260502043045 | 37 | 230 | 0.0 | 3.0 | 0.00 | 0.16 | 0.00 | 86 | 1016.2 |
| 20260502042525 | 37 | 230 | 0.0 | 4.0 | 0.00 | 0.16 | 0.00 | 87 | 1016.1 |
| 20260502042029 | 37 | 200 | 2.0 | 4.0 | 0.00 | 0.16 | 0.00 | 87 | 1016.1 |
| 20260502041535 | 37 | 225 | 1.0 | 2.0 | 0.00 | 0.16 | 0.00 | 88 | 1016.0 |
| 20260502041014 | 37 | 225 | 1.0 | 3.0 | 0.00 | 0.16 | 0.00 | 88 | 1016.0 |
| 20260502040559 | 37 | 225 | 1.0 | 3.0 | 0.00 | 0.16 | 0.00 | 89 | 1015.9 |
| 20260502040504 | 37 | 225 | 1.0 | 3.0 | 0.00 | 0.16 | 0.00 | 89 | 1015.9 |
| 20260502040045 | 37 | 234 | 1.0 | 3.0 | 0.00 | 0.16 | 0.16 | 89 | 1015.9 |
| 20260502035548 | 37 | 234 | 0.0 | 3.0 | 0.00 | 0.16 | 0.16 | 89 | 1015.8 |
| 20260502035054 | 37 | 234 | 1.0 | 3.0 | 0.00 | 0.16 | 0.16 | 89 | 1015.7 |
| 20260502034544 | 37 | 234 | 1.0 | 2.0 | 0.00 | 0.16 | 0.16 | 89 | 1015.7 |
| 20260502034052 | 37 | 234 | 0.0 | 2.0 | 0.00 | 0.16 | 0.16 | 89 | 1015.7 |
| 20260502033505 | 37 | 234 | 0.0 | 2.0 | 0.00 | 0.16 | 0.16 | 89 | 1015.5 |
| 20260502033054 | 37 | 234 | 1.0 | 2.0 | 0.00 | 0.16 | 0.16 | 89 | 1015.6 |
| 20260502032507 | 37 | 234 | 0.0 | 2.0 | 0.00 | 0.16 | 0.16 | 88 | 1015.4 |
| 20260502032021 | 38 | 234 | 0.0 | 2.0 | 0.00 | 0.16 | 0.16 | 88 | 1015.5 |
| 20260502031528 | 38 | 234 | 0.0 | 2.0 | 0.00 | 0.16 | 0.16 | 88 | 1015.4 |
| 20260502031036 | 38 | 234 | 0.0 | 2.0 | 0.00 | 0.16 | 0.16 | 87 | 1015.6 |
| 20260502030537 | 39 | 234 | 0.0 | 2.0 | 0.00 | 0.16 | 0.16 | 87 | 1015.6 |
| 20260502030026 | 39 | 234 | 0.0 | 3.0 | 0.00 | 0.16 | 0.16 | 87 | 1015.5 |
| 20260502025525 | 39 | 234 | 1.0 | 3.0 | 0.00 | 0.16 | 0.16 | 87 | 1015.4 |
| 20260502025038 | 39 | 240 | 0.0 | 2.0 | 0.00 | 0.16 | 0.16 | 87 | 1015.4 |
| 20260502024523 | 39 | 240 | 0.0 | 2.0 | 0.00 | 0.16 | 0.16 | 87 | 1015.3 |
| 20260502024028 | 39 | 240 | 0.0 | 2.0 | 0.00 | 0.16 | 0.16 | 87 | 1015.4 |
| 20260502023537 | 40 | 240 | 0.0 | 3.0 | 0.00 | 0.16 | 0.16 | 86 | 1015.3 |
| 20260502023044 | 40 | 240 | 0.0 | 3.0 | 0.00 | 0.16 | 0.16 | 86 | 1015.3 |